Weather History for KPHL - February, 2012

Change the Weather History Date:

Wednesday, February 1, 2012

  Actual Average Record
Temperature  
Mean Temperature 57 °F 34 °F  
Max Temperature 67 °F 41 °F 70 °F (2002)
Min Temperature 47 °F 26 °F 2 °F (1920)
Degree Days  
Heating Degree Days 8 32  
Month to date heating degree days 8 32  
Since 1 July heating degree days 2159 2695  
Cooling Degree Days 0 0  
Month to date cooling degree days 0 0  
Year to date cooling degree days 0 0  
Growing Degree Days 7 (Base 50)    
Moisture  
Dew Point 37 °F    
Average Humidity 52    
Maximum Humidity 66    
Minimum Humidity 37    
Precipitation  
Precipitation 0.02 in 0.10 in 2.92 in (1915)
Month to date precipitation 0.02 0.10  
Year to date precipitation 2.61 3.13  
Snow  
Snow 0.00 in 0.30 in 5.30 in (1934)
Month to date snowfall 0.0 0.3  
Since 1 July snowfall 2.8 10.5  
Snow Depth 0.00 in    
Sea Level Pressure  
Sea Level Pressure 30.00 in    
Wind  
Wind Speed 10 mph (WSW)    
Max Wind Speed 23 mph    
Max Gust Speed 30 mph    
Visibility 10 miles    
Events Rain    
T = Trace of Precipitation, MM = Missing Value Source: NWS Daily Summary

Daily Weather History Graph

Daily Weather History Graph

Search for Another Location

Airport or City:

Trip Planner

Search our weather history database for the weather conditions in past years. The results will help you decide how hot, cold, wet, or windy it might be!

Date:

Astronomy

Feb. 01, 2012 Rise Set
Actual Time 7:09 AM EST 5:19 PM EST
Civil Twilight 6:41 AM EST 5:48 PM EST
Nautical Twilight 6:08 AM EST 6:20 PM EST
Astronomical Twilight 5:36 AM EST 6:52 PM EST
Moon 11:46 AM EST (2/1) 1:53 AM EST (2/1)
Length of Visible Light 11h 07m
Length of Day
10h 10m
Waxing Gibbous, 64% of the Moon is Illuminated
Feb 1
Waxing Gibbous
Feb 7
Full
Feb 14
Last Quarter
Feb 21
New
Feb 29
First Quarter

Hourly Weather History & Observations

Time (EST) Temp. Dew Point Humidity Pressure Visibility Wind Dir Wind Speed Gust Speed Precip Events Conditions
12:54 AM 50.0 °F 30.9 °F 48% 30.05 in 10.0 mi SSW 6.9 mph - N/A   Scattered Clouds
1:54 AM 51.1 °F 32.0 °F 48% 30.05 in 10.0 mi SW 9.2 mph - N/A   Scattered Clouds
2:54 AM 51.1 °F 32.0 °F 48% 30.02 in 10.0 mi SW 11.5 mph - N/A   Mostly Cloudy
3:54 AM 52.0 °F 32.0 °F 47% 30.01 in 10.0 mi SW 12.7 mph - N/A   Overcast
4:54 AM 51.8 °F 32.0 °F 47% 29.99 in 10.0 mi West 4.6 mph - N/A   Overcast
5:54 AM 48.0 °F 34.0 °F 58% 30.02 in 10.0 mi WSW 5.8 mph - N/A   Overcast
6:54 AM 48.0 °F 37.0 °F 66% 30.01 in 10.0 mi WSW 5.8 mph - 0.00 in Rain Light Rain
7:54 AM 48.9 °F 37.9 °F 66% 30.01 in 10.0 mi SSW 9.2 mph - 0.01 in   Overcast
8:54 AM 50.0 °F 39.0 °F 66% 30.02 in 10.0 mi WSW 8.1 mph - N/A   Overcast
9:54 AM 53.1 °F 39.9 °F 61% 30.02 in 10.0 mi WSW 12.7 mph - N/A   Scattered Clouds
10:54 AM 55.9 °F 39.9 °F 55% 30.00 in 10.0 mi SW 13.8 mph - N/A   Mostly Cloudy
11:54 AM 60.1 °F 37.9 °F 44% 29.98 in 10.0 mi SW 13.8 mph - N/A   Mostly Cloudy
12:54 PM 64.0 °F 39.0 °F 40% 29.95 in 10.0 mi WSW 15.0 mph - N/A   Scattered Clouds
1:54 PM 64.9 °F 39.0 °F 39% 29.93 in 10.0 mi SW 13.8 mph - N/A   Scattered Clouds
2:54 PM 66.0 °F 39.9 °F 38% 29.94 in 10.0 mi WSW 15.0 mph - N/A   Scattered Clouds
3:54 PM 64.9 °F 39.9 °F 40% 29.94 in 10.0 mi West 18.4 mph - N/A   Scattered Clouds
4:54 PM 64.0 °F 41.0 °F 43% 29.96 in 10.0 mi West 15.0 mph - N/A   Mostly Cloudy
5:54 PM 62.1 °F 39.9 °F 44% 29.98 in 10.0 mi West 10.4 mph - N/A   Mostly Cloudy
6:54 PM 61.0 °F 39.9 °F 46% 30.00 in 10.0 mi West 8.1 mph - N/A   Mostly Cloudy
7:54 PM 57.9 °F 39.0 °F 49% 30.01 in 10.0 mi West 6.9 mph - N/A   Mostly Cloudy
8:54 PM 57.9 °F 39.0 °F 49% 30.01 in 10.0 mi WNW 6.9 mph - N/A   Mostly Cloudy
9:54 PM 55.9 °F 37.9 °F 51% 30.02 in 10.0 mi WNW 6.9 mph - N/A   Mostly Cloudy
10:54 PM 50.0 °F 37.9 °F 63% 30.02 in 10.0 mi WSW 6.9 mph - N/A   Mostly Cloudy
11:54 PM 48.9 °F 37.0 °F 64% 30.02 in 10.0 mi West 4.6 mph - N/A   Scattered Clouds